Change the Weather History Date:

Thursday, February 6, 2014

  Actual Average (KUIN) Record (KUIN)
Temperature  
Mean Temperature 2 °F 28 °F  
Max Temperature 9 °F 36 °F 67 °F (2009)
Min Temperature -5 °F 20 °F -16 °F (1978)
Degree Days  
Heating Degree Days 63 37  
Month to date heating degree days 223  
Since 1 July heating degree days 3609  
Cooling Degree Days 0 0  
Month to date cooling degree days 0  
Year to date cooling degree days 0  
Moisture  
Dew Point -6 °F    
Average Humidity 70    
Maximum Humidity 80    
Minimum Humidity 54    
Precipitation  
Precipitation 0.00 in 0.06 in 0.82 in (1942)
Month to date precipitation 0.32  
Year to date precipitation 1.84  
Sea Level Pressure  
Sea Level Pressure 30.54 in    
Wind  
Wind Speed 6 mph (West)    
Max Wind Speed 10 mph    
Max Gust Speed -    
Visibility 10 miles    
Events      
T = Trace of Precipitation, MM = Missing Value Source: NWS Daily Summary

Daily Weather History Graph

Daily Weather History Graph

Search for Another Location

Airport or City:

Trip Planner

Search our weather history database for the weather conditions in past years. The results will help you decide how hot, cold, wet, or windy it might be!

Date:

Astronomy

Feb. 06, 2014 Rise Set
Actual Time 7:05 AM CST 5:29 PM CST
Civil Twilight 6:37 AM CST 5:57 PM CST
Nautical Twilight 6:05 AM CST 6:29 PM CST
Astronomical Twilight 5:34 AM CST 7:00 PM CST
Moon 11:01 AM CST (2/6) 12:21 AM CST (2/6)
Length of Visible Light 11h 19m
Length of Day
10h 23m
Waxing Crescent, 49% of the Moon is Illuminated
Feb 6
Waxing Crescent
Feb 6
First Quarter
Feb 14
Full
Feb 22
Last Quarter
Mar 1
New

Hourly Weather History & Observations

Time (CST) Temp. Windchill Dew Point Humidity Pressure Visibility Wind Dir Wind Speed Gust Speed Precip Events Conditions
12:15 AM 2.1 °F -9.0 °F -4.0 °F 76% 30.58 in 10.0 mi West 5.8 mph - N/A   Clear
12:35 AM 2.7 °F -6.8 °F -3.6 °F 75% 30.58 in 10.0 mi West 4.6 mph - N/A   Scattered Clouds
12:55 AM 3.2 °F -7.8 °F -3.3 °F 74% 30.57 in 10.0 mi WNW 5.8 mph - N/A   Scattered Clouds
1:15 AM 2.8 °F -9.5 °F -3.6 °F 74% 30.57 in 10.0 mi WNW 6.9 mph - N/A   Clear
1:35 AM 2.7 °F -9.7 °F -4.0 °F 74% 30.57 in 10.0 mi West 6.9 mph - N/A   Scattered Clouds
1:55 AM 2.1 °F -9.0 °F -4.4 °F 74% 30.56 in 10.0 mi WNW 5.8 mph - N/A   Clear
2:15 AM 1.6 °F -11.0 °F -4.9 °F 74% 30.57 in 10.0 mi WNW 6.9 mph - N/A   Clear
2:35 AM 1.4 °F -9.9 °F -4.9 °F 75% 30.56 in 10.0 mi WNW 5.8 mph - N/A   Clear
2:55 AM 1.0 °F -10.3 °F -5.3 °F 75% 30.55 in 10.0 mi WNW 5.8 mph - N/A   Clear
3:15 AM 0.1 °F -11.4 °F -5.6 °F 77% 30.54 in 10.0 mi WNW 5.8 mph - N/A   Clear
3:35 AM -1.1 °F -11.2 °F -6.9 °F 77% 30.55 in 10.0 mi West 4.6 mph - N/A   Scattered Clouds
3:55 AM -0.4 °F -12.0 °F -6.2 °F 77% 30.55 in 10.0 mi WNW 5.8 mph - N/A   Scattered Clouds
4:15 AM -0.4 °F -10.4 °F -6.3 °F 76% 30.56 in 10.0 mi West 4.6 mph - N/A   Clear
4:35 AM -1.5 °F -13.3 °F -7.1 °F 77% 30.56 in 10.0 mi West 5.8 mph - N/A   Scattered Clouds
4:55 AM -1.1 °F -14.3 °F -6.5 °F 78% 30.56 in 10.0 mi West 6.9 mph - N/A   Clear
5:15 AM -1.1 °F -14.3 °F -6.3 °F 79% 30.56 in 10.0 mi WNW 6.9 mph - N/A   Clear
5:35 AM -2.2 °F -14.2 °F -7.6 °F 78% 30.57 in 10.0 mi West 5.8 mph - N/A   Scattered Clouds
5:55 AM -2.4 °F -14.4 °F -7.8 °F 78% 30.56 in 10.0 mi West 5.8 mph - N/A   Scattered Clouds
6:15 AM -4.2 °F -14.8 °F -9.2 °F 79% 30.57 in 10.0 mi West 4.6 mph - N/A   Clear
6:35 AM -4.0 °F -14.6 °F -9.0 °F 79% 30.57 in 10.0 mi West 4.6 mph - N/A   Scattered Clouds
6:55 AM -3.3 °F -15.4 °F -8.5 °F 78% 30.56 in 10.0 mi WNW 5.8 mph - N/A   Scattered Clouds
7:15 AM -5.4 °F -18.0 °F -10.7 °F 78% 30.57 in 10.0 mi West 5.8 mph - N/A   Scattered Clouds
7:35 AM -3.1 °F -13.5 °F -8.5 °F 78% 30.57 in 10.0 mi WNW 4.6 mph - N/A   Clear
7:55 AM -3.1 °F -15.2 °F -8.7 °F 77% 30.57 in 10.0 mi West 5.8 mph - N/A   Clear
8:15 AM -2.2 °F -15.6 °F -8.5 °F 75% 30.58 in 10.0 mi West 6.9 mph - N/A   Scattered Clouds
8:35 AM -0.8 °F -17.2 °F -8.0 °F 72% 30.59 in 10.0 mi West 10.4 mph - N/A   Clear
8:55 AM -0.6 °F -14.9 °F -8.0 °F 71% 30.59 in 10.0 mi West 8.1 mph - N/A   Scattered Clouds
9:15 AM 0.1 °F -14.0 °F -7.8 °F 69% 30.60 in 10.0 mi WNW 8.1 mph - N/A   Clear
9:35 AM 0.5 °F -13.6 °F -7.8 °F 68% 30.61 in 10.0 mi WNW 8.1 mph - N/A   Scattered Clouds
9:55 AM 1.2 °F -12.7 °F -7.6 °F 67% 30.61 in 10.0 mi West 8.1 mph - N/A   Clear
10:15 AM 1.9 °F -11.8 °F -7.1 °F 66% 30.61 in 10.0 mi WNW 8.1 mph - N/A   Clear
10:35 AM 3.0 °F -11.5 °F -6.7 °F 64% 30.61 in 10.0 mi West 9.2 mph - N/A   Scattered Clouds
10:55 AM 3.9 °F -9.4 °F -6.0 °F 64% 30.61 in 10.0 mi WNW 8.1 mph - N/A   Scattered Clouds
11:15 AM 4.6 °F -7.4 °F -5.8 °F 62% 30.60 in 10.0 mi WNW 6.9 mph - N/A   Clear
11:35 AM 5.7 °F -7.2 °F -4.7 °F 62% 30.59 in 10.0 mi WNW 8.1 mph - N/A   Clear
11:55 AM 6.1 °F -5.6 °F -4.7 °F 61% 30.58 in 10.0 mi WNW 6.9 mph - N/A   Clear
12:15 PM 6.6 °F -7.1 °F -4.5 °F 60% 30.57 in 10.0 mi West 9.2 mph - N/A   Clear
12:35 PM 6.8 °F -7.8 °F -4.4 °F 60% 30.56 in 10.0 mi WNW 10.4 mph - N/A   Clear
12:55 PM 7.2 °F -4.3 °F -4.5 °F 59% 30.54 in 10.0 mi WNW 6.9 mph - N/A   Clear
1:15 PM 7.9 °F -4.6 °F -3.6 °F 59% 30.53 in 10.0 mi WNW 8.1 mph - N/A   Clear
1:35 PM 7.7 °F -4.8 °F -3.6 °F 60% 30.53 in 10.0 mi West 8.1 mph - N/A   Clear
1:55 PM 8.1 °F -4.3 °F -3.5 °F 59% 30.52 in 10.0 mi West 8.1 mph - N/A   Clear
2:15 PM 8.4 °F -2.8 °F -3.5 °F 59% 30.52 in 10.0 mi West 6.9 mph - N/A   Clear
2:35 PM 8.8 °F -3.5 °F -3.3 °F 58% 30.51 in 10.0 mi West 8.1 mph - N/A   Clear
2:55 PM 9.5 °F -4.4 °F -2.7 °F 58% 30.51 in 10.0 mi West 10.4 mph - N/A   Scattered Clouds
3:15 PM 9.5 °F -2.6 °F -3.3 °F 56% 30.51 in 10.0 mi West 8.1 mph - N/A   Clear
3:35 PM 9.5 °F -1.5 °F -2.7 °F 58% 30.51 in 10.0 mi West 6.9 mph - N/A   Clear
3:55 PM 9.5 °F -3.5 °F -3.6 °F 55% 30.51 in 10.0 mi West 9.2 mph - N/A   Clear
4:15 PM 9.3 °F -2.8 °F -4.2 °F 54% 30.51 in 10.0 mi West 8.1 mph - N/A   Clear
4:35 PM 9.1 °F -4.0 °F -4.4 °F 54% 30.51 in 10.0 mi West 9.2 mph - N/A   Clear
4:55 PM 9.0 °F -2.2 °F -4.0 °F 56% 30.50 in 10.0 mi West 6.9 mph - N/A   Clear
5:15 PM 8.2 °F 1.6 °F -4.0 °F 58% 30.50 in 10.0 mi West 3.5 mph - N/A   Clear
5:35 PM 7.3 °F 0.5 °F -3.6 °F 61% 30.50 in 10.0 mi West 3.5 mph - N/A   Clear
5:55 PM 6.6 °F -0.3 °F -4.2 °F 61% 30.50 in 10.0 mi WSW 3.5 mph - N/A   Clear
6:15 PM 5.4 °F - -4.0 °F 65% 30.50 in 10.0 mi Calm Calm - N/A   Clear
6:35 PM 4.8 °F -2.3 °F -3.8 °F 68% 30.50 in 10.0 mi WSW 3.5 mph - N/A   Clear
6:55 PM 4.8 °F - -4.0 °F 67% 30.50 in 10.0 mi Calm Calm - N/A   Clear
7:15 PM 3.6 °F -3.8 °F -4.2 °F 70% 30.49 in 10.0 mi SSW 3.5 mph - N/A   Clear
7:35 PM 1.2 °F -6.4 °F -4.9 °F 75% 30.49 in 10.0 mi SSW 3.5 mph - N/A   Clear
7:55 PM -1.7 °F -9.7 °F -6.7 °F 79% 30.49 in 10.0 mi SSW 3.5 mph - N/A   Clear
8:15 PM 1.2 °F - -4.9 °F 75% 30.48 in 10.0 mi Calm Calm - N/A   Clear
8:35 PM 0.5 °F -9.3 °F -5.1 °F 77% 30.49 in 10.0 mi WSW 4.6 mph - N/A   Clear
8:55 PM -0.9 °F -8.9 °F -6.3 °F 78% 30.48 in 10.0 mi WSW 3.5 mph - N/A   Clear
9:15 PM 0.3 °F -9.5 °F -5.8 °F 75% 30.49 in 10.0 mi WSW 4.6 mph - N/A   Clear
9:35 PM -3.1 °F -11.4 °F -8.5 °F 78% 30.48 in 10.0 mi West 3.5 mph - N/A   Scattered Clouds
9:55 PM -0.9 °F -8.9 °F -6.5 °F 77% 30.50 in 10.0 mi WSW 3.5 mph - N/A   Clear
10:15 PM -3.1 °F -13.5 °F -7.8 °F 80% 30.50 in 10.0 mi SW 4.6 mph - N/A   Clear
10:35 PM -1.1 °F -11.2 °F -6.7 °F 77% 30.49 in 10.0 mi WSW 4.6 mph - N/A   Clear
10:55 PM -2.2 °F -12.5 °F -7.8 °F 77% 30.49 in 10.0 mi WSW 4.6 mph - N/A   Clear
11:15 PM -1.7 °F -9.7 °F -7.1 °F 78% 30.49 in 10.0 mi WSW 3.5 mph - N/A   Clear
11:35 PM -1.3 °F -11.4 °F -6.7 °F 78% 30.48 in 10.0 mi WSW 4.6 mph - N/A   Clear
11:55 PM -3.8 °F -12.2 °F -8.5 °F 80% 30.48 in 10.0 mi SW 3.5 mph - N/A   Scattered Clouds